Time,TemperatureF,DewpointF,PressureIn,WindDirection,WindDirectionDegrees,WindSpeedMPH,WindSpeedGustMPH,Humidity,HourlyPrecipIn,Conditions,Clouds,dailyrainin,SoftwareType,DateUTC
2014-10-31 00:00:00,43.3,36.9,30.01,NW,309,0.0,0.0,78,0.00,,,0.00,Wunderground v.1.15,2014-10-31 04:00:00,
2014-10-31 00:07:00,43.2,36.8,30.01,NW,309,0.0,0.0,78,0.00,,,0.00,Wunderground v.1.15,2014-10-31 04:07:00,
2014-10-31 00:12:00,43.1,37.0,30.01,NW,309,0.0,0.0,79,0.00,,,0.00,Wunderground v.1.15,2014-10-31 04:12:00,
2014-10-31 00:18:00,42.8,36.7,30.00,NW,309,0.0,0.0,79,0.00,,,0.00,Wunderground v.1.15,2014-10-31 04:18:00,
2014-10-31 00:24:00,42.6,36.5,30.00,NW,309,0.0,0.0,79,0.00,,,0.00,Wunderground v.1.15,2014-10-31 04:24:00,
2014-10-31 00:30:00,42.3,36.6,30.00,NW,309,0.0,0.0,80,0.00,,,0.00,Wunderground v.1.15,2014-10-31 04:30:00,
2014-10-31 00:36:00,42.2,36.5,30.00,NW,309,0.0,0.0,80,0.00,,,0.00,Wunderground v.1.15,2014-10-31 04:36:00,
2014-10-31 00:42:00,42.1,36.4,30.00,NW,309,0.0,0.0,80,0.00,,,0.00,Wunderground v.1.15,2014-10-31 04:42:00,
2014-10-31 00:48:00,41.9,36.5,30.00,NW,309,0.0,0.0,81,0.00,,,0.00,Wunderground v.1.15,2014-10-31 04:48:00,
2014-10-31 00:54:00,41.8,36.4,30.00,NW,309,0.0,0.0,81,0.00,,,0.00,Wunderground v.1.15,2014-10-31 04:54:00,
2014-10-31 01:00:00,41.6,36.2,30.00,NW,309,0.0,0.0,81,0.00,,,0.00,Wunderground v.1.15,2014-10-31 05:00:00,
2014-10-31 01:06:00,41.5,36.1,30.00,NW,309,0.0,0.0,81,0.00,,,0.00,Wunderground v.1.15,2014-10-31 05:06:00,
2014-10-31 01:12:00,41.3,36.2,30.00,NW,309,0.0,0.0,82,0.00,,,0.00,Wunderground v.1.15,2014-10-31 05:12:00,
2014-10-31 01:18:00,41.2,36.1,30.00,NW,309,0.0,0.0,82,0.00,,,0.00,Wunderground v.1.15,2014-10-31 05:18:00,
2014-10-31 01:24:00,41.1,36.0,30.00,NW,309,0.0,0.0,82,0.00,,,0.00,Wunderground v.1.15,2014-10-31 05:24:00,
2014-10-31 01:30:00,40.9,35.8,29.99,NW,309,0.0,0.0,82,0.00,,,0.00,Wunderground v.1.15,2014-10-31 05:30:00,
2014-10-31 01:36:00,40.8,36.0,29.99,NW,309,0.0,0.0,83,0.00,,,0.00,Wunderground v.1.15,2014-10-31 05:36:00,
2014-10-31 01:42:00,40.6,35.8,29.99,NW,309,0.0,0.0,83,0.00,,,0.00,Wunderground v.1.15,2014-10-31 05:42:00,
2014-10-31 01:48:00,40.5,35.7,30.00,NW,309,0.0,0.0,83,0.00,,,0.00,Wunderground v.1.15,2014-10-31 05:48:00,
2014-10-31 01:54:00,40.3,35.5,30.00,NW,309,0.0,0.0,83,0.00,,,0.00,Wunderground v.1.15,2014-10-31 05:54:00,
2014-10-31 02:00:00,40.3,35.5,30.00,NW,309,0.0,0.0,83,0.00,,,0.00,Wunderground v.1.15,2014-10-31 06:00:00,
2014-10-31 02:07:00,40.2,35.8,30.00,NW,309,0.0,0.0,84,0.00,,,0.00,Wunderground v.1.15,2014-10-31 06:07:00,
2014-10-31 02:12:00,40.1,35.7,30.00,NW,309,0.0,0.0,84,0.00,,,0.00,Wunderground v.1.15,2014-10-31 06:12:00,
2014-10-31 02:18:00,39.9,35.5,29.99,NW,309,0.0,0.0,84,0.00,,,0.00,Wunderground v.1.15,2014-10-31 06:18:00,
2014-10-31 02:24:00,39.9,35.5,29.99,NW,309,0.0,0.0,84,0.00,,,0.00,Wunderground v.1.15,2014-10-31 06:24:00,
2014-10-31 02:30:00,39.8,35.4,29.99,NW,309,0.0,0.0,84,0.00,,,0.00,Wunderground v.1.15,2014-10-31 06:30:00,
2014-10-31 02:36:00,39.6,35.2,29.99,NW,309,0.0,0.0,84,0.00,,,0.00,Wunderground v.1.15,2014-10-31 06:36:00,
2014-10-31 02:42:00,39.5,35.1,29.99,NW,309,0.0,0.0,84,0.00,,,0.00,Wunderground v.1.15,2014-10-31 06:42:00,
2014-10-31 02:48:00,39.5,35.4,29.99,NW,309,0.0,0.0,85,0.00,,,0.00,Wunderground v.1.15,2014-10-31 06:48:00,
2014-10-31 02:54:00,39.3,35.2,29.99,NW,309,0.0,0.0,85,0.00,,,0.00,Wunderground v.1.15,2014-10-31 06:54:00,
2014-10-31 03:00:00,39.3,35.2,29.99,NW,309,0.0,0.0,85,0.00,,,0.00,Wunderground v.1.15,2014-10-31 07:00:00,
2014-10-31 03:07:00,39.2,35.1,29.99,NW,309,0.0,0.0,85,0.00,,,0.00,Wunderground v.1.15,2014-10-31 07:07:00,
2014-10-31 03:12:00,39.1,35.0,29.99,NW,309,0.0,0.0,85,0.00,,,0.00,Wunderground v.1.15,2014-10-31 07:12:00,
2014-10-31 03:18:00,39.1,35.3,29.99,NW,309,0.0,0.0,86,0.00,,,0.00,Wunderground v.1.15,2014-10-31 07:18:00,
2014-10-31 03:24:00,38.9,35.1,29.99,NW,309,0.0,0.0,86,0.00,,,0.00,Wunderground v.1.15,2014-10-31 07:24:00,
2014-10-31 03:30:00,38.9,35.1,29.99,NW,309,0.0,0.0,86,0.00,,,0.00,Wunderground v.1.15,2014-10-31 07:30:00,
2014-10-31 03:36:00,38.8,35.0,29.99,NW,309,0.0,0.0,86,0.00,,,0.00,Wunderground v.1.15,2014-10-31 07:36:00,
2014-10-31 03:42:00,38.8,35.0,29.99,NW,309,0.0,0.0,86,0.00,,,0.00,Wunderground v.1.15,2014-10-31 07:42:00,
2014-10-31 03:48:00,38.6,34.8,29.98,NW,309,0.0,0.0,86,0.00,,,0.00,Wunderground v.1.15,2014-10-31 07:48:00,
2014-10-31 03:54:00,38.5,34.7,29.98,NW,309,0.0,0.0,86,0.00,,,0.00,Wunderground v.1.15,2014-10-31 07:54:00,
2014-10-31 04:00:00,38.5,34.7,29.98,NW,309,0.0,0.0,86,0.00,,,0.00,Wunderground v.1.15,2014-10-31 08:00:00,
2014-10-31 04:06:00,38.3,34.8,29.98,NW,309,0.0,0.0,87,0.00,,,0.00,Wunderground v.1.15,2014-10-31 08:06:00,
2014-10-31 04:12:00,38.3,34.8,29.98,NW,309,0.0,0.0,87,0.00,,,0.00,Wunderground v.1.15,2014-10-31 08:12:00,
2014-10-31 04:18:00,38.3,34.8,29.98,NW,309,0.0,0.0,87,0.00,,,0.00,Wunderground v.1.15,2014-10-31 08:18:00,
2014-10-31 04:24:00,38.2,34.7,29.98,NW,309,0.0,0.0,87,0.00,,,0.00,Wunderground v.1.15,2014-10-31 08:24:00,
2014-10-31 04:30:00,38.2,34.7,29.98,NW,309,0.0,0.0,87,0.00,,,0.00,Wunderground v.1.15,2014-10-31 08:30:00,
2014-10-31 04:36:00,38.0,34.5,29.98,NW,309,0.0,0.0,87,0.00,,,0.00,Wunderground v.1.15,2014-10-31 08:36:00,
2014-10-31 04:42:00,38.0,34.5,29.98,NW,309,0.0,0.0,87,0.00,,,0.00,Wunderground v.1.15,2014-10-31 08:42:00,
2014-10-31 04:48:00,38.0,34.5,29.97,NW,309,0.0,0.0,87,0.00,,,0.00,Wunderground v.1.15,2014-10-31 08:48:00,
2014-10-31 04:54:00,37.9,34.4,29.97,NW,309,0.0,0.0,87,0.00,,,0.00,Wunderground v.1.15,2014-10-31 08:54:00,
2014-10-31 05:00:00,37.9,34.4,29.97,NW,309,0.0,0.0,87,0.00,,,0.00,Wunderground v.1.15,2014-10-31 09:00:00,
2014-10-31 05:07:00,37.9,34.4,29.97,NW,309,0.0,0.0,87,0.00,,,0.00,Wunderground v.1.15,2014-10-31 09:07:00,
2014-10-31 05:12:00,37.9,34.7,29.97,NW,309,0.0,0.0,88,0.00,,,0.00,Wunderground v.1.15,2014-10-31 09:12:00,
2014-10-31 05:18:00,37.9,34.7,29.98,NW,309,0.0,0.0,88,0.00,,,0.00,Wunderground v.1.15,2014-10-31 09:18:00,
2014-10-31 05:24:00,37.9,34.7,29.98,NW,311,0.0,2.0,88,0.00,,,0.00,Wunderground v.1.15,2014-10-31 09:24:00,
2014-10-31 05:30:00,38.0,35.0,29.98,NW,311,0.0,0.0,89,0.00,,,0.00,Wunderground v.1.15,2014-10-31 09:30:00,
2014-10-31 05:36:00,38.2,35.2,29.98,NW,311,0.0,0.0,89,0.00,,,0.00,Wunderground v.1.15,2014-10-31 09:36:00,
2014-10-31 05:42:00,38.3,35.6,29.98,NW,311,0.0,0.0,90,0.00,,,0.00,Wunderground v.1.15,2014-10-31 09:42:00,
2014-10-31 05:48:00,38.5,35.8,29.98,NW,311,0.0,0.0,90,0.00,,,0.00,Wunderground v.1.15,2014-10-31 09:48:00,
2014-10-31 05:54:00,38.5,35.8,29.98,NW,311,0.0,0.0,90,0.00,,,0.00,Wunderground v.1.15,2014-10-31 09:54:00,
2014-10-31 06:00:00,38.6,36.2,29.97,NW,311,0.0,0.0,91,0.00,,,0.00,Wunderground v.1.15,2014-10-31 10:00:00,
2014-10-31 06:06:00,38.8,36.4,29.97,NW,311,0.0,0.0,91,0.00,,,0.00,Wunderground v.1.15,2014-10-31 10:06:00,
2014-10-31 06:12:00,38.8,36.4,29.97,NW,311,0.0,0.0,91,0.00,,,0.00,Wunderground v.1.15,2014-10-31 10:12:00,
2014-10-31 06:18:00,38.8,36.4,29.97,NW,311,0.0,0.0,91,0.00,,,0.00,Wunderground v.1.15,2014-10-31 10:18:00,
2014-10-31 06:24:00,38.8,36.4,29.97,NW,311,0.0,0.0,91,0.00,,,0.00,Wunderground v.1.15,2014-10-31 10:24:00,
2014-10-31 06:30:00,38.8,36.4,29.97,NW,311,0.0,0.0,91,0.00,,,0.00,Wunderground v.1.15,2014-10-31 10:30:00,
2014-10-31 06:36:00,38.8,36.4,29.97,NW,311,0.0,0.0,91,0.00,,,0.00,Wunderground v.1.15,2014-10-31 10:36:00,
2014-10-31 06:42:00,38.8,36.4,29.97,NW,311,0.0,0.0,91,0.00,,,0.00,Wunderground v.1.15,2014-10-31 10:42:00,
2014-10-31 06:48:00,38.6,36.2,29.97,NW,311,0.0,0.0,91,0.00,,,0.00,Wunderground v.1.15,2014-10-31 10:48:00,
2014-10-31 06:54:00,38.6,36.2,29.97,NW,311,0.0,0.0,91,0.00,,,0.00,Wunderground v.1.15,2014-10-31 10:54:00,
2014-10-31 07:00:00,38.5,36.1,29.96,NW,311,0.0,0.0,91,0.00,,,0.00,Wunderground v.1.15,2014-10-31 11:00:00,
2014-10-31 07:07:00,38.5,36.1,29.96,NW,311,0.0,0.0,91,0.00,,,0.00,Wunderground v.1.15,2014-10-31 11:07:00,
2014-10-31 07:12:00,38.5,36.1,29.96,NW,311,0.0,0.0,91,0.00,,,0.00,Wunderground v.1.15,2014-10-31 11:12:00,
2014-10-31 07:18:00,38.3,35.9,29.96,NW,311,0.0,0.0,91,0.00,,,0.00,Wunderground v.1.15,2014-10-31 11:18:00,
2014-10-31 07:24:00,38.3,35.9,29.96,NW,311,0.0,0.0,91,0.00,,,0.00,Wunderground v.1.15,2014-10-31 11:24:00,
2014-10-31 07:30:00,38.2,35.8,29.96,NW,311,0.0,0.0,91,0.00,,,0.00,Wunderground v.1.15,2014-10-31 11:30:00,
2014-10-31 07:36:00,38.0,35.6,29.96,NW,311,0.0,0.0,91,0.00,,,0.00,Wunderground v.1.15,2014-10-31 11:36:00,
2014-10-31 07:42:00,38.0,35.6,29.96,NW,311,0.0,0.0,91,0.00,,,0.00,Wunderground v.1.15,2014-10-31 11:42:00,
2014-10-31 07:48:00,37.9,35.5,29.97,NW,311,0.0,0.0,91,0.00,,,0.00,Wunderground v.1.15,2014-10-31 11:48:00,
2014-10-31 07:54:00,37.9,35.5,29.97,NW,311,0.0,0.0,91,0.00,,,0.00,Wunderground v.1.15,2014-10-31 11:54:00,
2014-10-31 08:00:00,37.8,35.4,29.97,NW,311,0.0,0.0,91,0.00,,,0.00,Wunderground v.1.15,2014-10-31 12:00:00,
2014-10-31 08:08:00,37.8,35.4,29.97,NW,311,0.0,0.0,91,0.00,,,0.00,Wunderground v.1.15,2014-10-31 12:08:00,
2014-10-31 08:14:00,37.8,35.4,29.97,NW,311,0.0,0.0,91,0.00,,,0.00,Wunderground v.1.15,2014-10-31 12:14:00,
2014-10-31 08:20:00,37.9,35.5,29.97,NW,311,0.0,0.0,91,0.00,,,0.00,Wunderground v.1.15,2014-10-31 12:20:00,
2014-10-31 08:26:00,37.9,35.8,29.97,NW,311,0.0,0.0,92,0.00,,,0.00,Wunderground v.1.15,2014-10-31 12:26:00,
2014-10-31 08:32:00,38.0,35.9,29.97,NW,311,0.0,0.0,92,0.00,,,0.00,Wunderground v.1.15,2014-10-31 12:32:00,
2014-10-31 08:38:00,38.3,36.2,29.97,NW,311,0.0,0.0,92,0.00,,,0.00,Wunderground v.1.15,2014-10-31 12:38:00,
2014-10-31 08:44:00,38.5,36.4,29.97,NW,311,0.0,0.0,92,0.00,,,0.00,Wunderground v.1.15,2014-10-31 12:44:00,
2014-10-31 08:50:00,38.8,36.7,29.97,NW,311,0.0,0.0,92,0.00,,,0.00,Wunderground v.1.15,2014-10-31 12:50:00,
2014-10-31 08:56:00,39.1,37.2,29.97,NW,311,0.0,0.0,93,0.00,,,0.00,Wunderground v.1.15,2014-10-31 12:56:00,
2014-10-31 09:02:00,39.2,37.3,29.97,NW,311,0.0,0.0,93,0.00,,,0.00,Wunderground v.1.15,2014-10-31 13:02:00,
2014-10-31 09:08:00,39.5,37.6,29.97,NW,311,0.0,0.0,93,0.00,,,0.00,Wunderground v.1.15,2014-10-31 13:08:00,
2014-10-31 09:14:00,39.8,37.9,29.97,NW,311,0.0,0.0,93,0.00,,,0.00,Wunderground v.1.15,2014-10-31 13:14:00,
2014-10-31 09:20:00,40.2,38.6,29.97,NW,311,0.0,0.0,94,0.00,,,0.00,Wunderground v.1.15,2014-10-31 13:20:00,
2014-10-31 09:28:00,40.5,38.9,29.97,NW,311,0.0,0.0,94,0.00,,,0.00,Wunderground v.1.15,2014-10-31 13:28:00,
2014-10-31 09:34:00,40.9,39.3,29.97,NW,311,0.0,0.0,94,0.00,,,0.00,Wunderground v.1.15,2014-10-31 13:34:00,
2014-10-31 09:40:00,41.2,39.6,29.97,NW,311,0.0,0.0,94,0.00,,,0.00,Wunderground v.1.15,2014-10-31 13:40:00,
2014-10-31 09:46:00,41.5,40.2,29.97,NW,311,0.0,0.0,95,0.00,,,0.00,Wunderground v.1.15,2014-10-31 13:46:00,
2014-10-31 09:52:00,41.8,40.5,29.97,NW,311,0.0,0.0,95,0.00,,,0.00,Wunderground v.1.15,2014-10-31 13:52:00,
2014-10-31 09:58:00,42.2,40.9,29.97,NW,311,0.0,0.0,95,0.00,,,0.00,Wunderground v.1.15,2014-10-31 13:58:00,
2014-10-31 10:04:00,42.5,41.2,29.96,NW,311,0.0,0.0,95,0.00,,,0.00,Wunderground v.1.15,2014-10-31 14:04:00,
2014-10-31 10:10:00,42.9,41.6,29.96,NW,311,0.0,1.0,95,0.00,,,0.00,Wunderground v.1.15,2014-10-31 14:10:00,
2014-10-31 10:16:00,43.3,42.2,29.96,NW,313,0.0,1.0,96,0.00,,,0.00,Wunderground v.1.15,2014-10-31 14:16:00,
2014-10-31 10:22:00,45.1,44.0,29.96,NW,313,0.0,1.0,96,0.00,,,0.00,Wunderground v.1.15,2014-10-31 14:22:00,
2014-10-31 10:28:00,46.4,45.3,29.96,NNE,31,1.0,2.0,96,0.00,,,0.00,Wunderground v.1.15,2014-10-31 14:28:00,
2014-10-31 10:34:00,47.3,45.7,29.95,NE,34,2.0,6.0,94,0.00,,,0.00,Wunderground v.1.15,2014-10-31 14:34:00,
2014-10-31 10:40:00,47.9,45.1,29.95,NE,47,1.0,1.0,90,0.00,,,0.00,Wunderground v.1.15,2014-10-31 14:40:00,
2014-10-31 10:46:00,48.3,44.3,29.95,NE,40,2.0,2.0,86,0.00,,,0.00,Wunderground v.1.15,2014-10-31 14:46:00,
2014-10-31 10:52:00,48.9,43.0,29.95,North,6,2.0,2.0,80,0.00,,,0.00,Wunderground v.1.15,2014-10-31 14:52:00,
2014-10-31 10:58:00,49.4,41.8,29.95,NE,44,3.0,7.0,75,0.00,,,0.00,Wunderground v.1.15,2014-10-31 14:58:00,